Location: Aixovall
(42.4760°N, 1.4902°E)
Time: 22:47:51
(UTC+00:00)

CENTAUR R/B - Visible Passes

Search period start: 18 November 2025 00:00
Search period end: 28 November 2025 00:00
Orbit: 635 x 1546 km, 63.4° (Epoch: 18 November)

Date Brightness Start Highest point End Pass type
(mag) Time Alt. Az. Time Alt. Az. Time Alt. Az.
18 Nov 5.6 01:17:36 11° NE 01:17:36 11° NE 01:18:11 10° NE visible
18 Nov 4.5 03:04:44 26° N 03:07:09 30° NE 03:14:56 10° E visible
18 Nov 3.4 04:51:52 17° NW 04:59:00 84° NE 05:08:32 10° SE visible
19 Nov 4.9 02:17:26 23° NNE 02:17:26 23° NNE 02:23:45 10° ENE visible
19 Nov 3.7 04:04:34 28° NNW 04:09:25 60° NE 04:18:43 10° SE visible
19 Nov 3.8 05:52:07 10° NW 06:00:09 43° WSW 06:08:50 10° S visible
20 Nov 5.4 01:30:12 14° NE 01:30:12 14° NE 01:32:20 10° ENE visible
20 Nov 4.1 03:17:21 36° N 03:19:41 43° NE 03:28:25 10° ESE visible
20 Nov 3.4 05:04:30 20° NW 05:10:55 65° WSW 05:20:14 10° SSE visible
21 Nov 4.6 02:30:14 31° NE 02:30:14 31° NE 02:37:40 10° E visible
21 Nov 3.3 04:17:23 37° NW 04:21:31 88° NE 04:31:02 10° SE visible
21 Nov 4.3 06:04:49 10° WNW 06:11:39 26° WSW 06:18:52 10° SSW visible
21 Nov 4.7 19:54:48 10° SW 19:54:55 11° SW 19:54:55 11° SW visible
22 Nov 5.2 01:43:13 19° ENE 01:43:13 19° ENE 01:46:31 10° ENE visible
22 Nov 3.6 03:30:23 55° N 03:31:58 63° NE 03:41:18 10° SE visible
22 Nov 3.8 05:17:32 22° WNW 05:22:37 40° WSW 05:31:10 10° S visible
22 Nov 3.5 19:05:46 10° SSW 19:08:08 28° S 19:08:08 28° S visible
23 Nov 4.2 02:43:29 43° ENE 02:43:29 43° ENE 02:51:04 10° ESE visible
23 Nov 3.3 04:30:39 45° WNW 04:33:24 61° WSW 04:42:40 10° SSE visible
23 Nov 4.8 06:18:56 10° WNW 06:22:54 14° WSW 06:26:59 10° SW visible
23 Nov 3.0 18:17:22 10° S 18:21:19 31° SE 18:21:19 31° SE visible
23 Nov 4.4 20:06:52 10° WSW 20:08:29 20° WSW 20:08:29 20° WSW visible
24 Nov 5.1 01:56:41 22° E 01:56:41 22° E 02:00:22 10° E visible
24 Nov 3.2 03:43:51 87° WNW 03:44:02 88° SW 03:53:33 10° SSE visible
24 Nov 4.3 05:31:02 20° W 05:34:05 24° WSW 05:41:02 10° SSW visible
24 Nov 3.7 17:29:58 10° SE 17:33:16 17° ESE 17:34:26 16° E visible
24 Nov 2.7 19:17:16 10° SW 19:21:35 59° WSW 19:21:35 59° WSW visible
25 Nov 4.0 02:57:09 48° ESE 02:57:09 48° ESE 03:03:52 10° SE visible
25 Nov 3.8 04:44:20 37° WSW 04:45:04 38° WSW 04:53:29 10° S visible
25 Nov 2.2 18:28:10 10° SSW 18:33:22 65° ESE 18:34:38 52° ENE visible
25 Nov 4.5 20:19:31 10° W 20:21:47 21° WNW 20:21:47 21° WNW visible
26 Nov 5.0 02:10:31 23° ESE 02:10:31 23° ESE 02:13:42 10° ESE visible
26 Nov 3.6 03:57:42 51° SSW 03:57:42 51° SSW 04:05:04 10° SSE visible
26 Nov 4.8 05:44:53 12° W 05:45:18 12° W 05:48:41 10° WSW visible
26 Nov 2.9 17:39:40 10° S 17:44:23 35° ESE 17:47:35 21° ENE visible
26 Nov 3.3 19:29:25 10° WSW 19:34:43 43° NW 19:34:44 43° NW visible
27 Nov 4.3 03:11:06 36° SSE 03:11:06 36° SSE 03:16:01 10° SSE visible
27 Nov 4.5 04:58:18 21° WSW 04:58:18 21° WSW 05:03:11 10° SSW visible
27 Nov 3.7 16:52:04 10° SSE 16:55:39 18° ESE 16:59:40 10° ENE visible
27 Nov 2.5 18:39:45 10° SW 18:45:07 69° NW 18:47:36 38° NNE visible
27 Nov 4.8 20:32:38 10° WNW 20:34:44 17° NW 20:34:44 17° NW visible
